Date String (YYYY-MM-DD hh:mm:ss) UTC,Instrument flags,Ambient pressure (hPa),Sample flow (lpm),Bypass flow (lpm),Sample temperature (°C),Ambient temperature (°C),ASC tube jacket temperature (°C),LED temperature (°C),Box temperature (°C),Sample RH (%),Span deviation,Mass concentration (μg/m³),Mass concentration (μg/m³),Mass concentration (μg/m³)
DateTimeUTC,F1_M11,P_M11,Q1_M11,Q2_M11,T1_M11,T2_M11,T3_M11,T4_M11,T5_M11,U1_M11,ZSPAN_M11,X0_M11,X2_M11,X1_M11
2022-07-27 07:00:00,,0829.8,5.00,0.00,31.2,28.9,00.0,39.7,32.3,33.2,0000.0,0010.90,0007.67,0007.07
2022-07-27 07:01:00,,0829.7,4.99,0.00,31.2,28.3,00.0,39.6,32.3,33.4,0000.0,0010.88,0007.65,0007.06
2022-07-27 07:02:00,,0829.8,5.02,0.00,31.1,27.8,00.0,39.6,32.2,33.3,0000.0,0010.80,0007.63,0007.05
2022-07-27 07:03:00,,0829.8,5.00,0.00,31.0,27.6,00.0,39.6,32.0,33.2,0000.0,0010.91,0007.61,0007.05
2022-07-27 07:04:00,,0829.7,4.99,0.00,30.9,27.7,00.0,39.5,32.0,33.5,0000.0,0010.90,0007.60,0007.03
2022-07-27 07:05:00,,0829.6,5.00,0.00,30.8,27.8,00.0,39.5,31.9,33.5,0000.0,0010.94,0007.60,0007.02
2022-07-27 07:06:00,,0829.7,5.00,0.00,30.8,27.9,00.0,39.5,31.9,33.7,0000.0,0011.41,0007.57,0006.99
2022-07-27 07:07:00,,0829.6,5.01,0.00,30.7,28.1,00.0,39.4,32.0,33.8,0000.0,0011.68,0007.57,0006.97
2022-07-27 07:08:00,,0829.6,5.00,0.00,30.7,28.2,00.0,39.4,32.0,34.5,0000.0,0011.75,0007.58,0006.96
2022-07-27 07:09:00,,0829.6,5.00,0.00,30.7,28.3,00.0,39.4,32.0,35.0,0000.0,0011.96,0007.59,0006.95
2022-07-27 07:10:00,,0829.6,5.00,0.00,30.9,28.4,00.0,39.4,32.1,34.4,0000.0,0012.04,0007.59,0006.94
2022-07-27 07:11:00,,0829.6,5.00,0.00,31.0,28.5,00.0,39.3,32.1,34.6,0000.0,0011.88,0007.56,0006.92
2022-07-27 07:12:00,,0829.6,5.00,0.00,31.0,28.6,00.0,39.4,32.2,34.6,0000.0,0011.99,0007.56,0006.92
2022-07-27 07:13:00,,0829.8,5.00,0.00,31.0,28.7,00.0,39.4,32.2,34.5,0000.0,0012.00,0007.58,0006.92
2022-07-27 07:14:00,,0829.6,5.00,0.00,31.0,28.8,00.0,39.4,32.2,35.2,0000.0,0011.80,0007.54,0006.89
2022-07-27 07:15:00,,0829.6,5.01,0.00,31.1,28.8,00.0,39.4,32.3,35.9,0000.0,0011.69,0007.45,0006.83
2022-07-27 07:16:00,,0829.6,5.01,0.00,31.4,28.9,00.0,39.4,32.5,34.9,0000.0,0011.57,0007.39,0006.77
2022-07-27 07:17:00,,0829.9,4.99,0.00,31.7,28.9,00.0,39.5,32.6,34.1,0000.0,0011.16,0007.35,0006.71
2022-07-27 07:18:00,,0829.6,5.00,0.00,31.9,29.0,00.0,39.5,32.6,34.1,0000.0,0010.93,0007.28,0006.65
2022-07-27 07:19:00,,0829.6,5.00,0.00,31.9,29.0,00.0,39.6,32.5,34.1,0000.0,0010.88,0007.19,0006.55
2022-07-27 07:20:00,,0829.6,5.00,0.00,32.0,29.1,00.0,39.6,32.5,34.0,0000.0,0010.65,0007.08,0006.44
2022-07-27 07:21:00,,0829.6,5.00,0.00,32.0,29.1,00.0,39.7,32.6,33.9,0000.0,0010.35,0006.95,0006.33
2022-07-27 07:22:00,,0829.5,4.99,0.00,32.0,29.2,00.0,39.8,32.6,33.8,0000.0,0010.17,0006.79,0006.21
2022-07-27 07:23:00,,0829.5,5.00,0.00,31.9,29.1,00.0,39.8,32.6,33.9,0000.0,0009.90,0006.63,0006.07
2022-07-27 07:24:00,,0829.5,5.01,0.00,31.9,28.2,00.0,39.8,32.5,34.0,0000.0,0009.81,0006.48,0005.93
2022-07-27 07:25:00,,0829.5,5.00,0.00,31.8,27.5,00.0,39.8,32.3,33.8,0000.0,0009.72,0006.39,0005.83
2022-07-27 07:26:00,,0829.5,5.00,0.00,31.7,27.2,00.0,39.8,32.1,33.8,0000.0,0009.77,0006.39,0005.84
2022-07-27 07:27:00,,0829.5,4.99,0.00,31.5,27.2,00.0,39.8,32.0,34.2,0000.0,0009.84,0006.42,0005.83
2022-07-27 07:28:00,,0829.5,5.02,0.00,31.4,27.4,00.0,39.7,32.0,34.6,0000.0,0009.91,0006.47,0005.85
2022-07-27 07:29:00,,0829.5,4.99,0.00,31.3,27.5,00.0,39.7,32.0,34.8,0000.0,0009.76,0006.50,0005.88
2022-07-27 07:30:00,,0829.4,5.01,0.00,31.2,27.7,00.0,39.7,32.0,36.7,0000.0,0009.66,0006.47,0005.88
2022-07-27 07:31:00,,0829.4,4.99,0.00,31.4,27.9,00.0,39.7,32.2,37.0,0000.0,0009.73,0006.48,0005.86
2022-07-27 07:32:00,,0829.4,5.01,0.00,31.7,28.0,00.0,39.6,32.3,35.5,0000.0,0010.02,0006.50,0005.83
2022-07-27 07:33:00,,0829.4,4.99,0.00,32.0,28.2,00.0,39.6,32.5,34.5,0000.0,0010.15,0006.48,0005.80
2022-07-27 07:34:00,,0829.3,4.99,0.00,32.2,28.3,00.0,39.7,32.5,34.3,0000.0,0010.09,0006.47,0005.80
2022-07-27 07:35:00,,0829.3,5.00,0.00,32.2,28.4,00.0,39.7,32.4,34.3,0000.0,0010.11,0006.46,0005.79
2022-07-27 07:36:00,,0829.2,5.01,0.00,32.2,28.5,00.0,39.8,32.4,34.1,0000.0,0010.11,0006.45,0005.77
2022-07-27 07:37:00,,0829.4,5.00,0.00,32.2,28.6,00.0,39.9,32.4,33.3,0000.0,0009.93,0006.35,0005.68
2022-07-27 07:38:00,,0829.2,5.00,0.00,32.2,28.7,00.0,39.9,32.4,32.8,0000.0,0009.70,0006.23,0005.62
2022-07-27 07:39:00,,0829.4,5.00,0.00,32.2,28.8,00.0,40.0,32.5,32.6,0000.0,0009.51,0006.09,0005.53
2022-07-27 07:40:00,,0829.3,5.00,0.00,32.1,28.9,00.0,40.0,32.5,32.7,0000.0,0009.52,0006.03,0005.45
2022-07-27 07:41:00,,0829.2,5.00,0.00,32.1,28.9,00.0,40.0,32.5,32.8,0000.0,0009.62,0006.05,0005.43
2022-07-27 07:42:00,,0829.3,5.00,0.00,32.1,29.0,00.0,40.1,32.5,33.1,0000.0,0009.68,0006.07,0005.45
2022-07-27 07:43:00,,0829.4,5.02,0.00,32.0,29.0,00.0,40.1,32.5,33.3,0000.0,0009.56,0006.11,0005.51
2022-07-27 07:44:00,,0829.3,5.01,0.00,32.0,29.1,00.0,40.1,32.6,33.4,0000.0,0009.79,0006.19,0005.59
2022-07-27 07:45:00,,0829.2,5.00,0.00,31.9,29.1,00.0,40.1,32.6,33.5,0000.0,0009.90,0006.28,0005.66
2022-07-27 07:46:00,,0829.3,5.00,0.00,31.9,29.2,00.0,40.1,32.6,33.6,0000.0,0009.86,0006.33,0005.73
2022-07-27 07:47:00,,0829.3,5.00,0.00,31.9,29.2,00.0,40.2,32.6,33.6,0000.0,0009.84,0006.36,0005.78
2022-07-27 07:48:00,,0829.3,5.00,0.00,31.8,29.2,00.0,40.2,32.6,33.6,0000.0,0009.98,0006.43,0005.85
2022-07-27 07:49:00,,0829.3,5.01,0.00,31.8,29.3,00.0,40.2,32.6,33.8,0000.0,0010.18,0006.53,0005.92
2022-07-27 07:50:00,,0829.2,5.00,0.00,31.8,29.3,00.0,40.1,32.7,33.9,0000.0,0010.39,0006.62,0006.00
2022-07-27 07:51:00,,0829.2,4.99,0.00,31.7,29.3,00.0,40.1,32.7,34.1,0000.0,0010.58,0006.71,0006.10
2022-07-27 07:52:00,,0829.3,5.00,0.00,31.7,29.4,00.0,40.1,32.7,34.3,0000.0,0011.07,0006.89,0006.23
2022-07-27 07:53:00,,0829.2,5.00,0.00,31.7,29.4,00.0,40.1,32.7,34.3,0000.0,0011.26,0006.99,0006.34
2022-07-27 07:54:00,,0829.2,5.00,0.00,31.7,28.7,00.0,40.1,32.6,34.3,0000.0,0011.62,0007.11,0006.44
2022-07-27 07:55:00,,0829.1,5.00,0.00,31.6,27.8,00.0,40.0,32.4,34.5,0000.0,0011.57,0007.28,0006.53
2022-07-27 07:56:00,,0829.0,5.01,0.00,31.5,27.3,00.0,39.9,32.3,34.7,0000.0,0011.68,0007.40,0006.62
2022-07-27 07:57:00,,0829.1,5.00,0.00,31.3,27.2,00.0,39.9,32.1,35.0,0000.8,0011.96,0007.54,0006.70
2022-07-27 07:58:00,,0829.0,5.01,0.00,31.2,27.3,00.0,39.8,32.1,35.2,0001.6,0012.17,0007.66,0006.79
2022-07-27 07:59:00,,0829.0,5.01,0.00,31.4,27.5,00.0,39.8,32.2,35.1,0001.6,0012.42,0007.80,0006.86
